Location: Piolenc
(44.1794°N, 4.7641°E)
Time: 03:39:55
(UTC+00:00)

ATLAS CENTAUR R/B - Pass Details

Date: 27 January 2021
Orbit: 471 x 674 km, 64.6° (Epoch: 24 February)

Event Time Altitude Azimuth Distance (km) Brightness Sun altitude
Exits shadow 06:08:15 14° 302° (WNW) 1,417 2.8 -10.2°
Maximum altitude 06:09:16 15° 321° (NW) 1,352 2.8 -10.0°
Drops below altitude 10° 06:11:28 10° 358° (N) 1,647 3.6 -9.6°
Sets 06:14:21 0° 23° (NNE) 2,544 4.8 -9.1°
